Pontiac, MI

9:03 PM EST on November 13, 2019 (GMT -0500)
Oakland County International

Weather History for KPTK - June, 2019

Change the Weather History Date:

Monday, June 10, 2019

  Actual Average Record
Temperature  
Mean Temperature 62 °F -  
Max Temperature 68 °F 73 °F 93 °F (1999)
Min Temperature 54 °F 54 °F 48 °F (2006)
Degree Days  
Heating Degree Days 4    
Growing Degree Days 12 (Base 50)    
Moisture  
Dew Point 61 °F    
Average Humidity 89    
Maximum Humidity 100    
Minimum Humidity 64    
Precipitation  
Precipitation 0.36 in - - ()
Sea Level Pressure  
Sea Level Pressure 29.90 in    
Wind  
Wind Speed 11 mph (West)    
Max Wind Speed 22 mph    
Max Gust Speed 34 mph    
Visibility 8 miles    
Events Rain    
Averages and records for this station are not official NWS values.
T = Trace of Precipitation, MM = Missing Value Source: NWS Daily Summary

Daily Weather History Graph

Daily Weather History Graph

Search for Another Location

Airport or City:

Astronomy

Jun. 10, 2019 Rise Set
Actual Time 5:55 AM EDT 9:10 PM EDT
Civil Twilight 5:20 AM EDT 9:45 PM EDT
Nautical Twilight 4:35 AM EDT 10:30 PM EDT
Astronomical Twilight 3:41 AM EDT 11:25 PM EDT
Moon 1:49 PM EDT (6/10) 2:18 AM EDT (6/10)
Length of Visible Light 16h 25m
Length of Day
15h 15m
First Quarter, 55% of the Moon is Illuminated
Jun 10
First Quarter
Jun 17
Full
Jun 25
Last Quarter
Jul 2
New
Jul 9
First Quarter

Hourly Weather History & Observations

Time (EDT) Temp. Dew Point Humidity Pressure Visibility Wind Dir Wind Speed Gust Speed Precip Events Conditions
12:53 AM 66.9 °F 66.9 °F 100% 29.92 in 7.0 mi East 3.5 mph - 0.01 in   Overcast
1:53 AM 68.0 °F 66.9 °F 96% 29.91 in 10.0 mi SSE 9.2 mph - 0.00 in Rain Light Rain
2:08 AM 68.0 °F 66.9 °F 96% 29.92 in 10.0 mi SSE 8.1 mph - 0.00 in Rain Light Rain
2:53 AM 68.0 °F 66.9 °F 96% 29.89 in 8.0 mi SSE 6.9 mph - 0.00 in Rain Light Rain
3:15 AM 68.0 °F 66.9 °F 96% 29.90 in 5.0 mi South 8.1 mph - 0.02 in Rain Rain
3:53 AM 66.9 °F 66.9 °F 100% 29.87 in 10.0 mi SSE 11.5 mph - 0.05 in   Overcast
4:53 AM 66.9 °F 66.9 °F 100% 29.85 in 10.0 mi SSE 6.9 mph - N/A   Overcast
5:53 AM 66.9 °F 66.9 °F 100% 29.84 in 6.0 mi SSE 9.2 mph - 0.01 in Rain Light Rain
6:32 AM 66.0 °F 66.0 °F 100% 29.85 in 1.5 mi SSE 10.4 mph - 0.05 in Rain Rain
6:53 AM 66.0 °F 66.0 °F 100% 29.84 in 3.0 mi SSE 11.5 mph - 0.13 in Rain Light Rain
7:53 AM 66.0 °F 66.0 °F 100% 29.83 in 3.0 mi Variable 6.9 mph - 0.01 in Rain Light Rain
8:09 AM 66.0 °F 66.0 °F 100% 29.84 in 2.5 mi SSE 9.2 mph - 0.04 in Rain Rain
8:36 AM 66.0 °F 66.0 °F 100% 29.83 in 3.0 mi SSE 9.2 mph - 0.10 in Rain Rain
8:53 AM 66.0 °F 66.0 °F 100% 29.81 in 3.0 mi SSE 8.1 mph - 0.13 in Rain Light Rain
9:53 AM 66.9 °F 66.9 °F 100% 29.81 in 3.0 mi South 11.5 mph - 0.02 in Rain Light Rain
10:43 AM 68.0 °F 66.9 °F 96% 29.83 in 4.0 mi WNW 16.1 mph - 0.00 in Rain Light Rain
10:53 AM 68.0 °F 66.0 °F 93% 29.82 in 5.0 mi WNW 16.1 mph 26.5 mph 0.00 in Rain Light Rain
11:32 AM 66.0 °F 64.9 °F 96% 29.84 in 9.0 mi WNW 16.1 mph 25.3 mph 0.00 in   Light Drizzle
11:53 AM 66.0 °F 64.9 °F 96% 29.83 in 10.0 mi NW 18.4 mph 24.2 mph 0.00 in   Overcast
12:53 PM 64.9 °F 64.0 °F 97% 29.85 in 10.0 mi WNW 17.3 mph 27.6 mph N/A   Overcast
1:24 PM 66.0 °F 63.0 °F 90% 29.86 in 10.0 mi NW 12.7 mph - 0.00 in   Overcast
1:53 PM 66.9 °F 62.1 °F 84% 29.86 in 10.0 mi NW 16.1 mph 26.5 mph 0.00 in   Overcast
2:11 PM 64.0 °F 61.0 °F 90% 29.88 in 10.0 mi WNW 21.9 mph 29.9 mph N/A   Overcast
2:26 PM 62.1 °F 60.1 °F 93% 29.89 in 10.0 mi NW 19.6 mph 31.1 mph N/A   Overcast
2:53 PM 60.1 °F 59.0 °F 96% 29.89 in 8.0 mi NW 19.6 mph 29.9 mph 0.00 in   Light Drizzle
3:12 PM 60.1 °F 57.0 °F 90% 29.92 in 10.0 mi WNW 18.4 mph 26.5 mph 0.00 in   Overcast
3:53 PM 62.1 °F 55.0 °F 78% 29.91 in 10.0 mi WNW 17.3 mph 31.1 mph 0.00 in   Overcast
4:14 PM 62.1 °F 55.0 °F 78% 29.93 in 10.0 mi WNW 18.4 mph 34.5 mph N/A   Overcast
4:53 PM 63.0 °F 55.0 °F 75% 29.94 in 10.0 mi WNW 20.7 mph 28.8 mph N/A   Overcast
5:53 PM 61.0 °F 52.0 °F 72% 29.98 in 10.0 mi NW 20.7 mph 27.6 mph N/A   Overcast
6:18 PM 61.0 °F 52.0 °F 72% 29.99 in 10.0 mi NW 16.1 mph 27.6 mph N/A   Overcast
6:53 PM 62.1 °F 51.1 °F 67% 29.99 in 10.0 mi NW 17.3 mph 24.2 mph N/A   Mostly Cloudy
7:53 PM 62.1 °F 50.0 °F 65% 30.01 in 10.0 mi NW 16.1 mph 24.2 mph N/A   Scattered Clouds
8:53 PM 61.0 °F 48.9 °F 64% 30.04 in 10.0 mi WNW 11.5 mph - N/A   Partly Cloudy
9:53 PM 57.0 °F 48.9 °F 74% 30.05 in 10.0 mi WNW 9.2 mph - N/A   Clear
10:53 PM 55.0 °F 48.0 °F 77% 30.07 in 10.0 mi West 8.1 mph - N/A   Clear
11:53 PM 54.0 °F 46.9 °F 77% 30.09 in 10.0 mi WNW 6.9 mph - N/A   Clear